Погода в Биаррице

Франция     43°28′43″N   1°32′50″W
темп.,
°C
ветер,
м/с
пор.,
м/с
влажн.,
%
обл.,
%
осадки,
мм/ч
давл.,
гПа
погр.,
м
3 марта, ср
ср301:00+11юв33745 0.0 102955
04:00+10юз12820 0.0 102926
07:00+9юв22810 0.0 102955
10:00+12юв227064 0.0 1029143
13:00+17всв025837 0.0 1028571
16:00+18св22570 0.0 1026789
19:00+15в237548 0.0 102536
22:00+12юв338427 0.0 102655
4 марта, чт
чт401:00+11ююз228313 0.0 102522
04:00+11ю128337 0.0 102324
07:00+10ю228238 0.0 102233
10:00+13ююв127124 0.0 1022128
13:00+16ссз326219 0.0 1021368
16:00+15с33670 0.0 1018292
19:00+12ссв23810 0.1 101732
22:00+11ю11892 0.0 101822
5 марта, пт
пт501:00+11юз229047 0.0 101831
04:00+10ююз129395 0.1 101864
07:00+9ю119284 0.1 101856
10:00+12з017876 0.0 1018233
13:00+13сз228284 0.0 1018372
16:00+12сз4481100 0.0 1018361
19:00+11з348694 0.1 1019162
22:00+10з24874 0.0 1021152
6 марта, сб
сб601:00+9св128626 0.0 1022169
04:00+8св128531 0.0 1022116
07:00+6ссв118928 0.0 1023144
10:00+9сз237998 0.1 1024588
13:00+10зсз457189 0.1 1025834
16:00+10зсз447187 0.0 1023801
19:00+8зсз238069 0.0 1024350
22:00+8з347776 0.0 1025455
7 марта, вс
вс701:00+7зюз237754 0.0 1025418
04:00+7зюз237970 0.0 1024387
07:00+8з227483 0.0 1024346
10:00+9зсз126899 0.0 1024710
13:00+10зсз326697 0.0 1023735
16:00+9сз226644 0.0 1021561
19:00+8зсз227159 0.0 1020193
22:00+8з127559 0.0 1022299